Regional Weather Roundup
Issued by NWS

Home | Current Version | Previous Version | Graphics & Text | Print | Product List | Glossary On
Versions: 1 2 3 4 5 6 7 8 9 10 11 12 13 14 15 16 17 18 19 20 21 22 23 24 25 26 27 28 29 30 31 32 33 34 35 36 37 38 39 40 41 42 43 44 45 46 47 48 49 50
000
ASUS43 KMKX 290211
RWRWI

WISCONSIN REGIONAL WEATHER ROUNDUP
NATIONAL WEATHER SERVICE MILWAUKEE/SULLIVAN WI
800 PM CST SUN DEC 28 2014

NOTE: "FAIR" INDICATES FEW OR NO CLOUDS BELOW 12,000 FEET WITH NO
SIGNIFICANT WEATHER AND/OR OBSTRUCTIONS TO VISIBILITY.

WIZ001-002-006>008-014>016-023>028-290300-
NORTHWEST WISCONSIN

CITY           SKY/WX    TMP DP  RH WIND       PRES   REMARKS
SUPERIOR ARPT  CLEAR      8  -1  67 NW5       30.34S WCI  -1
ASHLAND        CLEAR      1  -4  79 W5        30.30R WCI  -9
HAYWARD        CLEAR     -3  -8  79 CALM      30.28R
SIREN          CLEAR     -2  -5  85 N7        30.30S WCI -15
CUMBERLAND     CLEAR      5  -4  66 N6        30.25F WCI  -6
RICE LAKE      CLEAR      5  -1  78 N3        30.28S
CHETEK         CLEAR      4   1  88 CALM      30.27S
LADYSMITH      CLEAR     -1  -4  87 N5        30.27S WCI -11
EAU CLAIRE     CLEAR      9   4  80 N5        30.26R WCI   1
MENOMONIE      PTCLDY     6   2  86 CALM      30.27R FOG
NEW RICHMOND   CLEAR      5  -2  73 N5        30.29R WCI  -4
OSCEOLA        CLEAR      8  -1  68 N3        30.32R
$$

WIZ003>005-009-010-017-018-290300-
NORTH CENTRAL WISCONSIN

CITY           SKY/WX    TMP DP  RH WIND       PRES   REMARKS
MANITOWISH WTR PTCLDY    -6 -10  85 CALM      30.20S
ARBOR VITAE    PTCLDY    -1  -5  83 CALM      30.21R FOG
WOODRUFF       PTCLDY    -1  -5  83 CALM      30.21R FOG
RHINELANDER    CLEAR     -2  -3  96 CALM      30.21R
EAGLE RIVER    PTCLDY     1  -4  82 CALM      30.20R
LAND O LAKES   CLEAR     -4  -8  83 CALM      30.20R
PHILLIPS       CLEAR     -6  -8  89 CALM      30.23R
TOMAHAWK       CLEAR      4   1  85 CALM      30.23R
MEDFORD        PTCLDY   N/A N/A N/A N5        30.21S
MERRILL        CLEAR      5   4  93 CALM      30.22S
$$

WIZ029-030-035-036-043>047-290300-
CENTRAL WISCONSIN

CITY           SKY/WX    TMP DP  RH WIND       PRES   REMARKS
WAUSAU         CLEAR     10   9  95 CALM      30.21R
MOSINEE        CLEAR     10  10 100 N5        30.23R WCI   2
MARSHFIELD     PTCLDY     8   5  87 N7        30.22S WCI  -3
STEVENS POINT  CLEAR     15  12  89 CALM      30.23S
WAUPACA        MOCLDY    23  16  75 NW7       30.24R WCI  15
WAUTOMA        CLOUDY    23  16  75 N6        30.23S WCI  16
WISC RAPIDS    CLEAR     17  11  77 N5        30.25R WCI  10
CAMP DOUGLAS   PTCLDY    20  18  92 N6        30.24R WCI  12
$$

WIZ011>013-019>022-031-037>040-048>050-290300-
NORTHEAST WISCONSIN

CITY           SKY/WX    TMP DP  RH WIND       PRES   REMARKS
ANTIGO         CLEAR      6   4  88 NW7       30.20S WCI  -5
SHAWANO        FLURRIES  23  18  81 W5        30.24S WCI  17
OCONTO         PTCLDY    21  11  67 NW10G16   30.25R WCI   9
STURGEON BAY   CLOUDY    21   7  53 NW12      30.24R WCI   9
GREEN BAY      CLOUDY    24  16  71 N7        30.24R WCI  16
MANITOWOC      FLURRIES  26  20  77 N9        30.23R WCI  17
APPLETON       CLOUDY    25  16  68 N12       30.22R WCI  14
CLINTONVILLE   CLOUDY    21  16  79 NW8       30.23S WCI  12
OSHKOSH        CLOUDY    26  18  71 N8        30.22R WCI  18
$$

WIZ032>034-041-042-053>061-290300-
SOUTHWEST WISCONSIN

CITY           SKY/WX    TMP DP  RH WIND       PRES   REMARKS
LA CROSSE      CLEAR     18  13  80 N5        30.27R WCI  11
SPARTA         CLEAR     18  15  86 CALM      30.27R
VIROQUA        PTCLDY    22  19  87 N9        30.20R WCI  12
BOSCOBEL       PTCLDY    21  17  84 CALM      30.24R
PRAIRIE DU CHI PTCLDY    26  20  77 NW6       30.24R WCI  20
PLATTEVILLE    MOCLDY    25  19  78 CALM      30.21R
$$

WIZ056-057-062-063-064-067-068-290300-
SOUTH CENTRAL WISCONSIN

CITY           SKY/WX    TMP DP  RH WIND       PRES   REMARKS
REEDSBURG      CLOUDY    27  21  78 N10       30.21R WCI  17
BARABOO/DELLS  CLOUDY    27  20  77 N9        30.20S WCI  17
LONE ROCK      CLOUDY    32  19  58 W3        30.23R
MINERAL POINT  PTCLDY    27  21  80 CALM      30.20R
MADISON        CLOUDY    27  19  72 CALM      30.20R
MIDDLETON      CLOUDY    30  21  69 CALM      30.21R
WATERTOWN      MOCLDY    20  19  93 CALM      30.20R
MONROE         CLEAR     27  18  69 NW8       30.19S WCI  18
JANESVILLE     NOT AVBL
$$

WIZ051-052-058>065-066-070>072-290300-
SOUTHEAST WISCONSIN

CITY           SKY/WX    TMP DP  RH WIND       PRES   REMARKS
MILWAUKEE      PTCLDY    27  18  69 N5        30.21R WCI  22
WAUKESHA       CLEAR     19  16  86 CALM      30.21R
MILWAUKEE/TIMM CLEAR     25  18  74 CALM      30.22R
RACINE         CLEAR     27  17  66 NW5       30.23R WCI  22
BURLINGTON     CLEAR     20  17  88 CALM      30.21R
KENOSHA        CLEAR     27  19  72 N5        30.21R WCI  22
FOND DU LAC    CLOUDY    27  19  72 N12       30.21R WCI  17
SHEBOYGAN      CLOUDY    27  20  75 NW5       30.21R WCI  22
WEST BEND      CLOUDY    25  21  86 CALM      30.20S
JUNEAU         CLOUDY    27  20  76 CALM      30.21S
$$

LSZ147-162-290300-
LAKE SUPERIOR

STATION/POSITION TIME  TEMP    WIND        PRES    WAVE
                       AIR SEA DIR/SP/G            HT/PER
                 (UTC) (F)     (DEG/KT/KT) (MB)    (FT/S)
DEVILS ISLAND    0200   12     300/ 15/ 18 1027.7R
PORT WING        0100   15     300/ 13/ 16 1026.4R
SAXON HARBOR     0100   10     200/  4/  6 1025.7R
$$

LMZ867-665-643>646-290300-
LAKE MICHIGAN

STATION/POSITION TIME  TEMP    WIND        PRES    WAVE
                       AIR SEA DIR/SP/G            HT/PER
                 (UTC) (F)     (DEG/KT/KT) (MB)    (FT/S)
CHAMBERS ISLAND  0100   23     320/ 14/ 16 1023.4R
NORTHPORT PIER   0108   23     320/ 18/ 24 1023.0R
SISTER BAY       0113          340/ 22/ 25   N/A
ALGOMA LAKESHORE 0145          340/ 12/ 16   N/A
KEWAUNEE LAKESHO 0100   25     340/  8/ 12 1022.2R
SHEBOYGAN LAKESH 0200   28 36  330/  7/  8 1024.4R
PORT WASHINGTON  0140   27     300/  3/  4 1023.7R
MILWAUKEE LAKESH 0100   30     330/  4/  6   N/A
KENOSHA   LAKESH 0200   29     340/  4/  6 1023.0R
$$

TC  - TEMPERATURE IN CELSIUS
VSB - VISIBILITY IN STATUTE MILES
WCI - WIND CHILL INDEX
HX  - HEAT INDEX



USA.gov is the U.S. government's official web portal to all federal, state and local government web resources and services.